カタログに戻る

FENGYUN 1C DEB

運用中SSO
NORAD 30212·DEBRIS·🇨🇳 China

打ち上げ May 10, 1999 から Taiyuan Satellite Launch Center

Loading…

次のパス (今後24時間)

TLE

最新Source: Space-Track

元期: Sep 14, 2026, 03:28 UTC

1 30212U 99025VV  26257.14503153  .00000216  00000-0  18023-3 0  9993
2 30212  99.4215 134.9912 0096403 209.8809 149.6828 13.97304481   713

AllMySatでFENGYUN 1C DEBをリアルタイム追跡

Download on the App Store